Location: Wien
(48.2082°N, 16.3738°E)
Time: 20:31:16
(UTC+02:00)

NOAA 18 - Visible Passes

Search period start: 22 April 2024 00:00
Search period end: 02 May 2024 00:00
Orbit: 838 x 858 km, 98.9° (Epoch: 22 April)

Date Brightness Start Highest point End Pass type
(mag) Time Alt. Az. Time Alt. Az. Time Alt. Az.
22 Apr 7.0 00:19:49 19° W 00:20:27 20° W 00:24:24 10° NW visible
22 Apr 7.3 20:45:35 10° ENE 20:47:20 11° NE 20:49:03 10° NNE visible
22 Apr 5.4 22:25:09 41° ESE 22:26:50 57° ENE 22:32:16 10° N visible
23 Apr 6.7 00:07:06 24° WSW 00:07:49 25° W 00:12:19 10° NW visible
23 Apr 5.7 22:12:26 33° ESE 22:14:25 46° ENE 22:19:42 10° N visible
23 Apr 6.4 23:54:23 29° WSW 23:55:14 31° W 00:00:07 10° NNW visible
24 Apr 6.0 21:59:43 26° ESE 22:02:02 37° ENE 22:07:06 10° N visible
24 Apr 6.1 23:41:40 35° WSW 23:42:39 38° W 23:47:50 10° NNW visible
25 Apr 6.3 21:47:00 20° ESE 21:49:40 31° ENE 21:54:28 10° N visible
25 Apr 5.8 23:28:57 42° SW 23:30:07 48° W 23:35:29 10° NNW visible
26 Apr 6.6 21:34:17 16° ESE 21:37:20 25° ENE 21:41:45 10° N visible
26 Apr 5.5 23:16:14 47° SSW 23:17:35 60° WSW 23:23:05 10° NNW visible
27 Apr 6.8 21:21:34 12° E 21:25:00 21° ENE 21:29:01 10° N visible
27 Apr 5.2 23:03:31 48° S 23:05:04 75° WSW 23:10:39 10° NNW visible
28 Apr 7.5 00:45:28 11° W 00:46:39 12° W 00:48:38 10° WNW visible
28 Apr 7.0 21:09:14 10° E 21:12:42 17° NE 21:16:11 10° NNE visible
28 Apr 5.1 22:50:48 45° SSE 22:52:35 88° ENE 22:58:10 10° NNW visible
29 Apr 7.3 00:32:45 14° WSW 00:33:58 15° W 00:37:08 10° NW visible
29 Apr 7.2 20:57:38 10° E 21:00:25 14° NE 21:03:12 10° NNE visible
29 Apr 5.2 22:38:04 40° SE 22:40:08 72° ENE 22:45:40 10° N visible
30 Apr 7.0 00:20:01 18° WSW 00:21:19 19° W 00:25:14 10° NW visible
30 Apr 7.3 20:46:23 10° ENE 20:48:09 12° NE 20:49:56 10° NNE visible
30 Apr 5.4 22:25:21 33° SE 22:27:41 57° ENE 22:33:07 10° N visible
01 May 6.7 00:07:18 22° WSW 00:08:41 24° W 00:13:08 10° NW visible
01 May 5.7 22:12:38 27° ESE 22:15:15 46° ENE 22:20:32 10° N visible
